QPF
0.00 0.00 0.00 0.00 0.00 0.00 0.00 0.00 0.00 0.00 0.00 0.00 0.00 0.00 0.00 0.00 0.00 0.00 0.00 0.00 0.00 0.00 0.00 0.00 0.00 0.00 0.00 0.00 0.00 0.00 0.00 0.00 0.00 0.00 0.00 0.00 0.00 0.00 0.00 0.00 0.00 0.00 0.00 0.00
0.00 0.00 0.00 0.00 0.00 0.00 0.00 0.00 0.00 0.00 0.00 0.00 0.00 0.00 0.00 0.00 0.00 0.00 0.00 0.00 0.00 0.00 0.00 0.00 0.00 0.00 0.00 0.00 0.00 0.00 0.00 0.00 0.00 0.00 0.00 0.00 0.00 0.00 0.00 0.00 0.00 0.00 0.00 0.00
0.00 0.00 0.00 0.00 0.00 0.00 0.00 0.00 0.00 0.00 0.00 0.00 0.00 0.00 0.00 0.00 0.00 0.00 0.00 0.00 0.00 0.00 0.00 0.00 0.00 0.00 0.00 0.00 0.00 0.00 0.00 0.00 0.00 0.00 0.00 0.00 0.00 0.00 0.00 0.00 0.00 0.00 0.00 0.00
0.00 0.00 0.00 0.00 0.00 0.00 0.00 0.00 0.00 0.00 0.00 0.00 0.00 0.00 0.00 0.00 0.00 0.00 0.00 0.00 0.00 0.00 0.00 0.00 0.00 0.00 0.00 0.00 0.00 0.00 0.00 0.00 0.00 0.00 0.00 0.00 0.00 0.00 0.00 0.00 0.00 0.00 0.00 0.00
0.00 0.00 0.00 0.00 0.00 0.00 0.00 0.00 0.00 0.00 0.00 0.00 0.00 0.00 0.00 0.00 0.00 0.00 0.00 0.00 0.00 0.00 0.00 0.00 0.00 0.00 0.00 0.00 0.00 0.00 0.00 0.00 0.00 0.00 0.00 0.00 0.00 0.00 0.00 0.00 0.00 0.00 0.00 0.00
0.00 0.00 0.00 0.00 0.00 0.00 0.00 0.00 0.00 0.00 0.00 0.00 0.00 0.00 0.00 0.00 0.00 0.00 0.00 0.00 0.00 0.00 0.00 0.00 0.00 0.00 0.00 0.00 0.00 0.00 0.00 0.00 0.00 0.00 0.00 0.00 0.00 0.00 0.00 0.00 0.00 0.00 0.00 0.00
0.00 0.00 0.00 0.00 0.00 0.00 0.00 0.00 0.00 0.00 0.00 0.00 0.00 0.00 0.00 0.00 0.00 0.00 0.00 0.00 0.00 0.00 0.00 0.00 0.00 0.00 0.00 0.00 0.00 0.00 0.00 0.00 0.00 0.00 0.00 0.00 0.00 0.00 0.00 0.00 0.00 0.00 0.00 0.00
0.00 0.00 0.00 0.00 0.00 0.00 0.00 0.00 0.00 0.00 0.00 0.00 0.00 0.00 0.00 0.00 0.00 0.00 0.00 0.00 0.00 0.00 0.00 0.00 0.00 0.00 0.00 0.00 0.00 0.00 0.00 0.00 0.00 0.00 0.00 0.00 0.00 0.00 0.00 0.00 0.00 0.00 0.00 0.00
0.00 0.00 0.00 0.00 0.00 0.00 0.00 0.00 0.00 0.00 0.00 0.00 0.00 0.00 0.00 0.00 0.00 0.00 0.00 0.00 0.00 0.00 0.00 0.00 0.00 0.00 0.00 0.00 0.00 0.00 0.00 0.00 0.00 0.00 0.00 0.00 0.00 0.00 0.00 0.00 0.00 0.00 0.00 0.00
0.00 0.00 0.00 0.00 0.00 0.00 0.00 0.00 0.00 0.00 0.00 0.00 0.00 0.00 0.00 0.00 0.00 0.00 0.00 0.00 0.00 0.00 0.00 0.00 0.00 0.00 0.00 0.00 0.00 0.00 0.00 0.00 0.00 0.00 0.00 0.00 0.00 0.00 0.00 0.00 0.00 0.00 0.00 0.00
0.00 0.00 0.00 0.00 0.00 0.00 0.00 0.00 0.00 0.00 0.00 0.00 0.00 0.00 0.00 0.00 0.00 0.00 0.00 0.00 0.00 0.00 0.00 0.00 0.00 0.00 0.00 0.00 0.00 0.00 0.00 0.00 0.00 0.00 0.00 0.00 0.00 0.00 0.00 0.00 0.00 0.00 0.00 0.00
0.00 0.00 0.00 0.00 0.00 0.00 0.00 0.00 0.00 0.00 0.00 0.00 0.00 0.00 0.00 0.00 0.00 0.00 0.00 0.00 0.00 0.00 0.00 0.00 0.00 0.00 0.00 0.00 0.00 0.00 0.00 0.00 0.00 0.00 0.00 0.00 0.00 0.00 0.00 0.00 0.00 0.00 0.00 0.00
0.00 0.00 0.00 0.00 0.00 0.00 0.00 0.00 0.00 0.00 0.00 0.00 0.00 0.00 0.00 0.00 0.00 0.00 0.00 0.00 0.00 0.00 0.00 0.00 0.00 0.00 0.00 0.00 0.00 0.00 0.00 0.00 0.00 0.00 0.00 0.00 0.00 0.00 0.00 0.00 0.00 0.00 0.00 0.00
0.00 0.00 0.00 0.00 0.00 0.00 0.00 0.00 0.00 0.00 0.00 0.00 0.00 0.00 0.00 0.00 0.00 0.00 0.00 0.00 0.00 0.00 0.00 0.00 0.00 0.00 0.00 0.00 0.00 0.00 0.00 0.00 0.00 0.00 0.00 0.00 0.00 0.00 0.00 0.00 0.00 0.00 0.00 0.00
0.00 0.00 0.00 0.00 0.00 0.00 0.00 0.00 0.00 0.00 0.00 0.00 0.00 0.00 0.00 0.00 0.00 0.00 0.00 0.00 0.00 0.00 0.00 0.00 0.00 0.00 0.00 0.00 0.00 0.00 0.00 0.00 0.00 0.00 0.00 0.00 0.00 0.00 0.00 0.00 0.00 0.00 0.00 0.00
0.00 0.00 0.00 0.00 0.00 0.00 0.00 0.00 0.00 0.00 0.00 0.00 0.00 0.00 0.00 0.00 0.00 0.00 0.00 0.00 0.00 0.00 0.00 0.00 0.00 0.00 0.00 0.00 0.00 0.00 0.00 0.00 0.00 0.00 0.00 0.00 0.00 0.00 0.00 0.00 0.00 0.00 0.00 0.00
0.00 0.00 0.00 0.00 0.00 0.00 0.00 0.00 0.00 0.00 0.00 0.00 0.00 0.00 0.00 0.00 0.00 0.00 0.00 0.00 0.00 0.00 0.00 0.00 0.00 0.00 0.00 0.00 0.00 0.00 0.00 0.00 0.00 0.00 0.00 0.00 0.00 0.00 0.00 0.00 0.00 0.00 0.00 0.00
0.00 0.00 0.00 0.00 0.00 0.00 0.00 0.00 0.00 0.00 0.00 0.00 0.00 0.00 0.00 0.00 0.00 0.00 0.00 0.00 0.00 0.00 0.00 0.00 0.00 0.00 0.00 0.00 0.00 0.00 0.00 0.00 0.00 0.00 0.00 0.00 0.00 0.00 0.00 0.00 0.00 0.00 0.00 0.00
0.00 0.00 0.00 0.00 0.00 0.00 0.00 0.00 0.00 0.00 0.00 0.00 0.00 0.00 0.00 0.00 0.00 0.00 0.00 0.00 0.00 0.00 0.00 0.00 0.00 0.00 0.00 0.00 0.00 0.00 0.00 0.00 0.00 0.00 0.00 0.00 0.00 0.00 0.00 0.00 0.00 0.00 0.00 0.00
0.00 0.00 0.00 0.00 0.00 0.00 0.00 0.00 0.00 0.00 0.00 0.00 0.00 0.00 0.00 0.00 0.00 0.00 0.00 0.00 0.00 0.00 0.00 0.00 0.00 0.00 0.00 0.00 0.00 0.00 0.00 0.00 0.00 0.00 0.00 0.00 0.00 0.00 0.00 0.00 0.00 0.00 0.00 0.00
0.00 0.00 0.00 0.00 0.00 0.00 0.00 0.00 0.00 0.00 0.00 0.00 0.00 0.00 0.00 0.00 0.00 0.00 0.00 0.00 0.00 0.00 0.00 0.00 0.00 0.00 0.00 0.00 0.00 0.00 0.00 0.00 0.00 0.00 0.00 0.00 0.00 0.00 0.00 0.00 0.00 0.00 0.00 0.00
0.00 0.00 0.00 0.00 0.00 0.00 0.00 0.00 0.00 0.00 0.00 0.00 0.00 0.00 0.00 0.00 0.00 0.00 0.00 0.00 0.00 0.00 0.00 0.00 0.00 0.00 0.00 0.00 0.00 0.00 0.00 0.00 0.00 0.00 0.00 0.00 0.00 0.00 0.00 0.00 0.00 0.00 0.00 0.00
0.00 0.00 0.00 0.00 0.00 0.00 0.00 0.00 0.00 0.00 0.00 0.00 0.00 0.00 0.00 0.00 0.00 0.00 0.00 0.00 0.00 0.00 0.00 0.00 0.00 0.00 0.00 0.00 0.00 0.00 0.00 0.00 0.00 0.00 0.00 0.00 0.00 0.00 0.00 0.00 0.00 0.00 0.00 0.00
0.00 0.00 0.00 0.00 0.00 0.00 0.00 0.00 0.00 0.00 0.00 0.00 0.00 0.00 0.00 0.00 0.00 0.00 0.00 0.00 0.00 0.00 0.00 0.00 0.00 0.00 0.00 0.00 0.00 0.00 0.00 0.00 0.00 0.00 0.00 0.00 0.00 0.00 0.00 0.00 0.00 0.00 0.00 0.00
0.00 0.00 0.00 0.00 0.00 0.00 0.00 0.00 0.00 0.00 0.00 0.00 0.00 0.00 0.00 0.00 0.00 0.00 0.00 0.00 0.00 0.00 0.00 0.00 0.00 0.00 0.00 0.00 0.00 0.00 0.00 0.00 0.00 0.00 0.00 0.00 0.00 0.00 0.00 0.00 0.00 0.00 0.00 0.00
0.00 0.00 0.00 0.00 0.00 0.00 0.00 0.00 0.00 0.00 0.00 0.00 0.00 0.00 0.00 0.00 0.00 0.00 0.00 0.00 0.00 0.00 0.00 0.00 0.00 0.00 0.00 0.00 0.00 0.00 0.00 0.00 0.00 0.00 0.00 0.00 0.00 0.00 0.00 0.00 0.00 0.00 0.00 0.00
MSLP
1019.68 1019.83 1019.88 1019.86 1019.81 1019.74 1019.64 1019.49 1019.25 1018.85 1018.27 1017.47 1016.47 1015.32 1014.10 1012.93 1011.91 1011.13 1010.66 1010.52 1010.68 1011.11 1011.74 1012.51 1013.33 1014.18 1015.01 1015.83 1016.62 1017.39 1018.14 1018.85 1019.51 1020.12 1020.66 1021.14 1021.56 1021.95 1022.32 1022.71 1023.12 1023.56 1024.01 1024.48
1019.79 1019.84 1019.80 1019.72 1019.63 1019.55 1019.46 1019.33 1019.11 1018.74 1018.16 1017.35 1016.31 1015.10 1013.82 1012.56 1011.45 1010.60 1010.05 1009.85 1009.97 1010.36 1010.96 1011.68 1012.47 1013.26 1014.04 1014.81 1015.55 1016.28 1016.99 1017.68 1018.34 1018.96 1019.50 1019.99 1020.41 1020.80 1021.17 1021.55 1021.96 1022.41 1022.90 1023.40
1019.78 1019.74 1019.65 1019.54 1019.45 1019.39 1019.35 1019.29 1019.13 1018.80 1018.25 1017.43 1016.37 1015.12 1013.76 1012.44 1011.27 1010.35 1009.75 1009.49 1009.56 1009.89 1010.43 1011.08 1011.78 1012.49 1013.17 1013.84 1014.50 1015.16 1015.82 1016.49 1017.14 1017.75 1018.31 1018.79 1019.22 1019.59 1019.94 1020.30 1020.69 1021.13 1021.62 1022.15
1019.67 1019.58 1019.46 1019.36 1019.31 1019.32 1019.37 1019.39 1019.30 1019.02 1018.49 1017.68 1016.59 1015.29 1013.88 1012.50 1011.27 1010.30 1009.66 1009.36 1009.37 1009.65 1010.11 1010.66 1011.25 1011.83 1012.39 1012.94 1013.49 1014.06 1014.66 1015.28 1015.92 1016.52 1017.08 1017.56 1017.98 1018.33 1018.65 1018.97 1019.33 1019.74 1020.22 1020.75
1019.51 1019.39 1019.28 1019.22 1019.25 1019.36 1019.50 1019.61 1019.59 1019.35 1018.83 1018.00 1016.87 1015.52 1014.07 1012.64 1011.37 1010.36 1009.69 1009.35 1009.32 1009.54 1009.92 1010.37 1010.83 1011.27 1011.69 1012.09 1012.52 1012.99 1013.51 1014.09 1014.69 1015.29 1015.84 1016.32 1016.72 1017.04 1017.32 1017.60 1017.91 1018.29 1018.75 1019.28
1019.33 1019.21 1019.15 1019.17 1019.29 1019.49 1019.73 1019.91 1019.93 1019.71 1019.17 1018.29 1017.12 1015.71 1014.21 1012.74 1011.45 1010.43 1009.74 1009.39 1009.33 1009.49 1009.79 1010.14 1010.48 1010.78 1011.04 1011.31 1011.60 1011.96 1012.40 1012.93 1013.50 1014.08 1014.62 1015.08 1015.46 1015.76 1016.00 1016.24 1016.51 1016.85 1017.28 1017.80
1019.18 1019.10 1019.09 1019.19 1019.40 1019.68 1019.98 1020.20 1020.23 1019.99 1019.40 1018.47 1017.23 1015.78 1014.24 1012.75 1011.45 1010.44 1009.76 1009.41 1009.34 1009.46 1009.69 1009.94 1010.16 1010.32 1010.45 1010.57 1010.74 1010.99 1011.36 1011.82 1012.35 1012.90 1013.43 1013.88 1014.25 1014.52 1014.73 1014.93 1015.16 1015.47 1015.88 1016.39
1019.10 1019.07 1019.12 1019.29 1019.55 1019.88 1020.20 1020.41 1020.40 1020.10 1019.45 1018.45 1017.16 1015.67 1014.11 1012.64 1011.37 1010.39 1009.75 1009.42 1009.34 1009.44 1009.61 1009.77 1009.88 1009.92 1009.91 1009.91 1009.96 1010.11 1010.39 1010.79 1011.28 1011.81 1012.31 1012.75 1013.10 1013.36 1013.54 1013.71 1013.92 1014.20 1014.59 1015.10
1019.11 1019.12 1019.21 1019.41 1019.70 1020.02 1020.31 1020.46 1020.37 1019.99 1019.26 1018.20 1016.87 1015.38 1013.85 1012.43 1011.22 1010.31 1009.72 1009.43 1009.36 1009.43 1009.55 1009.63 1009.64 1009.56 1009.44 1009.32 1009.27 1009.32 1009.53 1009.87 1010.31 1010.81 1011.29 1011.71 1012.04 1012.28 1012.45 1012.60 1012.79 1013.05 1013.43 1013.93
1019.18 1019.22 1019.33 1019.52 1019.78 1020.04 1020.24 1020.29 1020.10 1019.62 1018.82 1017.73 1016.41 1014.96 1013.51 1012.18 1011.08 1010.27 1009.76 1009.50 1009.45 1009.49 1009.55 1009.56 1009.46 1009.28 1009.06 1008.84 1008.69 1008.66 1008.80 1009.08 1009.47 1009.92 1010.37 1010.77 1011.08 1011.31 1011.46 1011.60 1011.77 1012.02 1012.38 1012.87
1019.29 1019.33 1019.42 1019.56 1019.73 1019.88 1019.96 1019.88 1019.58 1019.01 1018.17 1017.09 1015.82 1014.47 1013.15 1011.97 1011.02 1010.32 1009.89 1009.69 1009.63 1009.64 1009.64 1009.56 1009.37 1009.09 1008.77 1008.47 1008.24 1008.15 1008.21 1008.43 1008.76 1009.16 1009.57 1009.93 1010.22 1010.42 1010.56 1010.68 1010.83 1011.06 1011.40 1011.87
1019.39 1019.41 1019.44 1019.50 1019.55 1019.56 1019.48 1019.27 1018.85 1018.23 1017.38 1016.35 1015.19 1014.00 1012.85 1011.86 1011.06 1010.50 1010.16 1009.99 1009.92 1009.89 1009.80 1009.63 1009.35 1008.99 1008.59 1008.21 1007.92 1007.76 1007.76 1007.92 1008.19 1008.53 1008.88 1009.18 1009.43 1009.59 1009.70 1009.80 1009.93 1010.14 1010.45 1010.89
1019.44 1019.42 1019.38 1019.32 1019.23 1019.08 1018.86 1018.51 1018.00 1017.34 1016.52 1015.59 1014.58 1013.57 1012.64 1011.85 1011.23 1010.80 1010.53 1010.38 1010.29 1010.19 1010.02 1009.76 1009.39 1008.95 1008.48 1008.04 1007.70 1007.49 1007.44 1007.53 1007.73 1007.99 1008.27 1008.51 1008.69 1008.80 1008.88 1008.95 1009.05 1009.23 1009.51 1009.91
1019.43 1019.35 1019.23 1019.05 1018.81 1018.52 1018.15 1017.68 1017.11 1016.44 1015.68 1014.87 1014.04 1013.24 1012.52 1011.93 1011.47 1011.16 1010.95 1010.80 1010.67 1010.49 1010.24 1009.88 1009.44 1008.93 1008.42 1007.94 1007.56 1007.32 1007.21 1007.24 1007.36 1007.53 1007.72 1007.88 1007.99 1008.04 1008.07 1008.10 1008.17 1008.32 1008.57 1008.93
1019.36 1019.22 1019.01 1018.72 1018.36 1017.93 1017.43 1016.87 1016.26 1015.60 1014.92 1014.23 1013.58 1012.98 1012.46 1012.05 1011.73 1011.50 1011.33 1011.17 1010.99 1010.73 1010.40 1009.96 1009.46 1008.91 1008.37 1007.88 1007.48 1007.20 1007.05 1007.00 1007.04 1007.13 1007.21 1007.28 1007.30 1007.29 1007.27 1007.26 1007.30 1007.43 1007.65 1007.98
1019.24 1019.05 1018.76 1018.38 1017.91 1017.37 1016.78 1016.15 1015.51 1014.87 1014.26 1013.70 1013.19 1012.76 1012.41 1012.14 1011.93 1011.76 1011.60 1011.41 1011.17 1010.85 1010.45 1009.96 1009.42 1008.86 1008.31 1007.82 1007.42 1007.11 1006.92 1006.81 1006.76 1006.74 1006.72 1006.69 1006.63 1006.56 1006.48 1006.44 1006.46 1006.57 1006.77 1007.07
1019.09 1018.87 1018.52 1018.07 1017.51 1016.89 1016.23 1015.55 1014.89 1014.28 1013.73 1013.26 1012.87 1012.57 1012.34 1012.16 1012.02 1011.88 1011.71 1011.48 1011.19 1010.82 1010.37 1009.85 1009.30 1008.75 1008.22 1007.75 1007.35 1007.03 1006.79 1006.62 1006.48 1006.36 1006.24 1006.10 1005.96 1005.83 1005.71 1005.65 1005.66 1005.76 1005.95 1006.24
1018.93 1018.68 1018.29 1017.78 1017.17 1016.49 1015.77 1015.06 1014.39 1013.80 1013.29 1012.88 1012.57 1012.35 1012.19 1012.07 1011.96 1011.82 1011.63 1011.38 1011.05 1010.64 1010.17 1009.66 1009.12 1008.60 1008.10 1007.65 1007.27 1006.93 1006.65 1006.41 1006.18 1005.96 1005.74 1005.52 1005.30 1005.11 1004.97 1004.89 1004.90 1005.00 1005.20 1005.48
1018.76 1018.47 1018.05 1017.50 1016.85 1016.13 1015.38 1014.65 1013.97 1013.39 1012.91 1012.54 1012.28 1012.10 1011.98 1011.88 1011.77 1011.62 1011.41 1011.13 1010.78 1010.36 1009.89 1009.40 1008.90 1008.42 1007.96 1007.55 1007.17 1006.82 1006.49 1006.18 1005.86 1005.55 1005.23 1004.92 1004.64 1004.41 1004.25 1004.17 1004.19 1004.30 1004.50 1004.77
1018.52 1018.20 1017.74 1017.16 1016.48 1015.73 1014.97 1014.23 1013.56 1012.99 1012.54 1012.20 1011.97 1011.81 1011.71 1011.61 1011.50 1011.33 1011.11 1010.81 1010.45 1010.04 1009.60 1009.14 1008.68 1008.24 1007.82 1007.43 1007.05 1006.68 1006.30 1005.92 1005.52 1005.12 1004.72 1004.34 1004.00 1003.74 1003.56 1003.48 1003.51 1003.62 1003.82 1004.09
1018.18 1017.80 1017.30 1016.68 1015.97 1015.22 1014.46 1013.74 1013.10 1012.56 1012.14 1011.84 1011.64 1011.50 1011.41 1011.32 1011.20 1011.03 1010.80 1010.50 1010.14 1009.74 1009.32 1008.90 1008.48 1008.08 1007.69 1007.30 1006.92 1006.52 1006.09 1005.64 1005.16 1004.68 1004.21 1003.77 1003.40 1003.10 1002.91 1002.82 1002.84 1002.96 1003.14 1003.39
1017.68 1017.22 1016.66 1016.00 1015.28 1014.53 1013.80 1013.12 1012.54 1012.06 1011.70 1011.45 1011.29 1011.20 1011.12 1011.05 1010.93 1010.76 1010.53 1010.23 1009.88 1009.50 1009.10 1008.70 1008.31 1007.93 1007.55 1007.16 1006.76 1006.32 1005.85 1005.34 1004.80 1004.26 1003.73 1003.24 1002.83 1002.51 1002.30 1002.20 1002.20 1002.28 1002.44 1002.65
1017.00 1016.44 1015.80 1015.10 1014.38 1013.65 1012.97 1012.37 1011.87 1011.49 1011.22 1011.05 1010.96 1010.92 1010.89 1010.83 1010.73 1010.56 1010.33 1010.03 1009.69 1009.31 1008.92 1008.53 1008.15 1007.77 1007.39 1006.99 1006.56 1006.09 1005.58 1005.02 1004.44 1003.86 1003.29 1002.77 1002.33 1001.98 1001.74 1001.61 1001.58 1001.62 1001.73 1001.87
1016.15 1015.47 1014.76 1014.02 1013.30 1012.62 1012.02 1011.52 1011.14 1010.88 1010.73 1010.67 1010.67 1010.69 1010.71 1010.68 1010.60 1010.43 1010.20 1009.89 1009.54 1009.16 1008.76 1008.36 1007.97 1007.58 1007.18 1006.76 1006.31 1005.82 1005.28 1004.70 1004.09 1003.48 1002.90 1002.36 1001.90 1001.53 1001.26 1001.08 1001.00 1000.98 1001.02 1001.08
1015.18 1014.40 1013.61 1012.85 1012.15 1011.54 1011.04 1010.67 1010.43 1010.31 1010.29 1010.35 1010.44 1010.54 1010.60 1010.60 1010.52 1010.35 1010.09 1009.77 1009.39 1008.98 1008.56 1008.14 1007.72 1007.31 1006.89 1006.45 1005.99 1005.48 1004.93 1004.35 1003.75 1003.14 1002.56 1002.02 1001.55 1001.16 1000.85 1000.63 1000.48 1000.38 1000.33 1000.32
1014.21 1013.33 1012.50 1011.74 1011.08 1010.56 1010.18 1009.94 1009.85 1009.87 1009.97 1010.13 1010.31 1010.46 1010.55 1010.55 1010.45 1010.26 1009.97 1009.60 1009.19 1008.74 1008.28 1007.83 1007.38 1006.94 1006.51 1006.06 1005.58 1005.08 1004.54 1003.98 1003.40 1002.81 1002.25 1001.72 1001.25 1000.84 1000.50 1000.23 1000.01 999.84 999.70 999.60
Thickness
5692 5691 5692 5696 5694 5692 5687 5684 5688 5696 5698 5682 5694 5709 5727 5734 5730 5729 5729 5728 5729 5728 5724 5717 5706 5696 5686 5678 5670 5663 5655 5646 5637 5629 5622 5615 5609 5601 5594 5588 5581 5573 5565 5556
5687 5688 5695 5690 5682 5678 5677 5678 5687 5696 5684 5678 5692 5706 5725 5731 5728 5729 5728 5728 5728 5725 5722 5715 5705 5696 5688 5681 5672 5665 5657 5649 5641 5633 5625 5617 5609 5603 5595 5586 5578 5571 5563 5554
5682 5690 5683 5679 5677 5674 5677 5676 5683 5680 5683 5681 5677 5710 5728 5732 5724 5723 5723 5722 5721 5719 5716 5712 5702 5694 5687 5681 5675 5667 5660 5650 5641 5631 5620 5612 5604 5599 5592 5585 5578 5569 5560 5552
5681 5683 5675 5674 5675 5673 5676 5677 5669 5666 5667 5676 5667 5678 5716 5722 5721 5725 5726 5723 5719 5715 5710 5706 5700 5692 5686 5681 5673 5665 5658 5649 5640 5629 5621 5614 5608 5605 5600 5589 5579 5568 5558 5549
5682 5677 5673 5672 5675 5670 5673 5664 5662 5660 5660 5662 5665 5662 5700 5715 5715 5718 5719 5717 5713 5709 5705 5701 5696 5691 5685 5677 5670 5662 5654 5647 5638 5629 5622 5614 5609 5605 5597 5588 5578 5568 5557 5547
5676 5673 5671 5670 5665 5662 5661 5659 5656 5652 5656 5660 5663 5659 5685 5710 5703 5703 5708 5708 5705 5701 5698 5696 5692 5687 5681 5674 5666 5659 5652 5645 5636 5627 5620 5612 5608 5601 5594 5587 5577 5565 5555 5545
5672 5670 5666 5664 5661 5658 5656 5657 5661 5662 5661 5665 5651 5650 5677 5703 5697 5691 5690 5692 5692 5693 5692 5691 5688 5684 5678 5672 5664 5656 5649 5643 5634 5626 5618 5612 5605 5596 5591 5584 5574 5562 5552 5543
5662 5668 5664 5660 5659 5657 5652 5650 5647 5642 5649 5658 5648 5651 5688 5700 5692 5686 5682 5682 5684 5686 5686 5684 5682 5679 5674 5669 5661 5654 5647 5641 5632 5624 5616 5607 5599 5590 5586 5579 5570 5560 5551 5541
5659 5660 5656 5652 5650 5649 5645 5644 5640 5637 5636 5630 5649 5659 5680 5695 5688 5684 5681 5678 5677 5677 5676 5675 5674 5671 5668 5663 5657 5650 5643 5636 5627 5619 5610 5601 5593 5585 5578 5570 5561 5554 5545 5535
5655 5652 5655 5645 5642 5636 5638 5638 5630 5628 5626 5628 5642 5649 5668 5684 5685 5680 5674 5668 5667 5666 5666 5665 5664 5661 5658 5654 5649 5642 5635 5628 5620 5612 5603 5595 5587 5578 5569 5561 5555 5547 5539 5527
5646 5644 5647 5642 5639 5643 5628 5625 5626 5628 5624 5622 5626 5647 5674 5673 5671 5663 5659 5658 5656 5654 5653 5652 5651 5648 5645 5642 5637 5632 5625 5618 5611 5603 5596 5588 5580 5571 5562 5555 5548 5539 5530 5520
5637 5637 5639 5644 5637 5629 5630 5631 5626 5621 5626 5617 5619 5642 5677 5668 5657 5647 5646 5645 5644 5640 5637 5637 5636 5635 5634 5630 5625 5619 5613 5607 5600 5593 5586 5579 5572 5563 5556 5549 5541 5532 5523 5513
5627 5627 5628 5636 5628 5618 5617 5619 5616 5617 5613 5615 5611 5638 5666 5657 5650 5643 5636 5632 5628 5625 5623 5623 5622 5621 5619 5616 5612 5607 5601 5595 5588 5582 5575 5569 5563 5556 5549 5542 5533 5524 5515 5506
5623 5624 5624 5625 5634 5631 5619 5615 5608 5604 5607 5616 5623 5636 5651 5648 5638 5631 5623 5618 5615 5612 5609 5608 5607 5607 5605 5602 5599 5595 5590 5584 5576 5570 5564 5559 5554 5548 5542 5534 5526 5517 5507 5498
5612 5616 5621 5624 5626 5618 5613 5615 5615 5607 5612 5611 5626 5629 5637 5631 5620 5613 5609 5605 5601 5599 5596 5594 5592 5592 5591 5589 5587 5582 5577 5572 5564 5559 5554 5550 5544 5539 5532 5525 5517 5508 5499 5490
5604 5605 5606 5610 5615 5609 5607 5615 5617 5615 5615 5614 5616 5619 5622 5612 5606 5601 5598 5593 5589 5586 5584 5581 5579 5578 5577 5575 5572 5568 5564 5558 5551 5547 5543 5539 5533 5528 5522 5516 5508 5501 5492 5483
5599 5597 5596 5605 5605 5595 5606 5623 5620 5617 5618 5614 5612 5615 5605 5597 5592 5589 5586 5582 5578 5575 5572 5569 5567 5565 5563 5561 5557 5552 5549 5544 5539 5534 5530 5526 5521 5517 5513 5507 5500 5493 5486 5477
5597 5588 5586 5588 5586 5582 5625 5626 5616 5613 5614 5611 5604 5598 5592 5586 5582 5580 5578 5573 5568 5565 5562 5560 5556 5553 5551 5548 5543 5538 5532 5529 5525 5521 5518 5515 5511 5508 5504 5499 5493 5487 5479 5471
5586 5582 5578 5573 5582 5600 5616 5614 5604 5599 5602 5601 5593 5587 5582 5577 5575 5576 5571 5563 5557 5554 5551 5547 5544 5541 5539 5535 5531 5524 5520 5518 5514 5511 5510 5507 5503 5499 5496 5492 5487 5480 5473 5465
5568 5573 5573 5568 5560 5580 5612 5599 5591 5587 5589 5588 5581 5576 5572 5568 5564 5566 5560 5554 5549 5544 5540 5536 5533 5530 5528 5525 5519 5512 5513 5512 5510 5507 5504 5500 5497 5492 5489 5485 5480 5473 5466 5459
5566 5562 5561 5565 5562 5585 5600 5585 5579 5575 5584 5576 5572 5568 5562 5556 5553 5554 5550 5544 5538 5534 5530 5526 5522 5519 5517 5512 5506 5504 5505 5504 5502 5498 5494 5491 5488 5484 5481 5477 5472 5465 5458 5450
5574 5569 5562 5561 5557 5573 5588 5573 5574 5578 5574 5567 5563 5558 5553 5549 5546 5542 5537 5531 5527 5522 5519 5515 5511 5508 5503 5498 5496 5497 5497 5495 5490 5486 5484 5481 5479 5475 5470 5466 5461 5455 5447 5440
5566 5573 5576 5570 5578 5587 5574 5571 5570 5562 5559 5556 5551 5546 5541 5537 5534 5529 5524 5520 5516 5511 5507 5502 5498 5494 5492 5489 5487 5486 5486 5482 5479 5477 5475 5473 5470 5465 5460 5455 5450 5443 5436 5429
5564 5560 5559 5564 5576 5573 5567 5561 5557 5552 5548 5544 5538 5533 5528 5524 5520 5515 5511 5506 5501 5498 5494 5489 5486 5484 5484 5480 5476 5475 5474 5471 5469 5467 5465 5463 5459 5455 5450 5443 5437 5432 5426 5419
5554 5551 5552 5558 5563 5560 5558 5550 5546 5541 5535 5530 5526 5520 5514 5509 5505 5500 5495 5492 5488 5484 5480 5476 5472 5471 5471 5471 5468 5465 5463 5460 5458 5456 5453 5451 5447 5443 5439 5434 5427 5421 5416 5407
5545 5543 5543 5552 5554 5548 5548 5538 5531 5525 5520 5515 5510 5504 5498 5492 5487 5483 5479 5476 5472 5469 5466 5463 5462 5462 5463 5461 5459 5455 5452 5448 5445 5444 5442 5439 5436 5432 5427 5423 5418 5412 5403 5397